Regional Weather Roundup
Issued by NWS New Orleans/Baton Rouge, LA

Home | Current Version | Previous Version | Graphics & Text | Print | Product List | Glossary On
Versions: 1 2 3 4 5 6 7 8 9 10 11 12 13 14 15 16 17 18 19 20 21 22 23 24 25 26 27 28 29 30 31 32 33 34 35 36 37 38 39 40 41 42 43 44 45 46 47 48 49 50
607
ASUS44 KLIX 241310
RWRLIX
NEW ORLEANS REGIONAL WEATHER ROUNDUP
NATIONAL WEATHER SERVICE NEW ORLEANS LA
800 AM CDT THU JUL 24 2014

NOTE: "FAIR" INDICATES FEW OR NO CLOUDS BELOW 12,000 FEET WITH NO
      SIGNIFICANT WEATHER AND/OR OBSTRUCTIONS TO VISIBILITY.
      SKY/WX - SKY CONDITION AND SIGNIFICANT WEATHER.
      TMP - AIR TEMPERATURE.     DP    - DEWPOINT TEMPERATURE.
      RH  - RELATIVE HUMIDITY.   PRES  - PRESSURE.
      HI  - HEAT INDEX.          WCI   - WIND CHILL INDEX.

*  THESE STATIONS ARE NOT NWS OR FAA STATIONS AND ARE NOT UNDER
   NWS QUALITY CONTROL.

LAZ038-040-048-061>063-065>067-069-241400-
SOUTHEAST LOUISIANA

CITY           SKY/WX    TMP DP  RH WIND       PRES   REMARKS
N.O. AUDUBON     N/A     84  78  81 MISG        N/A  HX  95
N.O. INTL ARPT MOSUNNY   80  74  81 CALM      30.00R
N.O. LAKEFRONT SUNNY     80  74  81 SE3       30.00S
N.O. DOWNTOWN*   N/A     81  72  74 CALM      30.00S
SLIDELL        SUNNY     77  73  87 CALM      30.00R
BATON ROUGE    SUNNY     76  73  91 E3        30.01R
BOOTHVILLE       N/A     80  74  81 S7        30.01R
BELLE CHASSE   PTSUNNY   80  74  81 CALM      29.99S HAZE
BOGALUSA*        N/A     75  71  87 CALM      30.03S
GALLIANO*      NOT AVBL
NEW ROADS*     PTSUNNY   75  75  98 CALM      30.01R FOG
GONZALES*        N/A     75  75 100 CALM      30.01R
HAMMOND*       SUNNY     75  72  88 N5        30.03R
HOUMA*         MOSUNNY   77  73  88 CALM      29.99S
PORT FOURCHON* PTSUNNY   79  75  89 SW7       30.02R

$$

MSZ070-080>082-241400-
SOUTHERN MISSISSIPPI

CITY           SKY/WX    TMP DP  RH WIND       PRES   REMARKS
MCCOMB         SUNNY     75  71  87 CALM      30.03R
GULFPORT       SUNNY     81  73  76 E3        30.01R
BILOXI         LGT RAIN  77  75  94 S3        30.02R
PASCAGOULA     SUNNY     77  73  87 CALM      30.02R

$$

COASTAL OBSERVATIONS
LAKE AND NEARSHORE STATIONS

STATION/POSITION TIME  TEMP    WIND        PRES    WAVE
                       AIR SEA DIR/SP/G            HT/PER
                 (UTC) (F)     (DEG/KT/KT) (MB)    (FT/S)
WAVELAND YACHT   1300   79      40/  2/  2 1015.4
GRAND ISLE       1300   79 84  300/ 12/ 16 1016.5
SOUTHWEST PASS   1300   83 84  210/  8/ 12 1016.5
NEW CANAL        1300   80 81  150/  1/  2 1016.2
SHELL BEACH      1300   78 80  170/  7/ 11 1015.9

OFFSHORE STATIONS

STATION/POSITION TIME  TEMP    WIND        PRES    WAVE
                       AIR SEA DIR/SP/G            HT/PER
                 (UTC) (F)     (DEG/KT/KT) (MB)    (FT/S)
64 S DAUPHIN ISL 1155   83 84  210/ 10/ 10 1016.4

$$




USA.gov is the U.S. government's official web portal to all federal, state and local government web resources and services.